NOAA 16 DEB

Satellite information

Favourite Embed

Satellite Type and Status

DEBRISIN ORBIT

Key statistics

Satellite NOAA 16 DEB at a glance.

Uptime

8995

Days in orbit

Revolutions

≈ 14.5

Per day

Orbit

SSO

Sun Synchronous Orbit

Inclination

98.9

Latest

Satellite identification and parameters

Extended collection of information and parameters for NOAA 16 DEB.

Object identification

Identified? True

Debris? True

Object name: NOAA 16 DEB

International designator: 2000-055ED

Object number (NORAD): 41224

Object ID (CCSDS): 41224

Country: UNITED STATES OF AMERICA (US)

Current information (Y/N): Y

RCS size: SMALL

Orbital parameters

Period: 99.565 minutes

Inclination: 98.9145 deg

SMA: 7115.919 km

Apoapsis: 757.069 km

Periapsis: 718.499 km

RAAN: 237.7545 deg

Eccentricy: 0.0027101

Argument of periapsis: 201.3851 deg

Mean anomaly: 158.6209 deg

Mean motion: 14.46292969 rev/day

Mean motion (dot): 0.00020708 rev/day2

B* drag term: 0.0057479 1/REarth

Two-line elements (TLE)

Creation date: May 7, 2025, 2:36 p.m.

Reference frame: TEME

Reference center: EARTH

Epoch: May 6, 2025, 12:59 p.m. UTC

TLE line 0: 0 NOAA 16 DEB

TLE line 1: 1 41224U 00055ED 25126.54164831 .00020708 00000-0 57479-2 0 9992

TLE line 2: 2 41224 98.9145 237.7545 0027101 201.3851 158.6209 14.46292969484835

Live tracking on map

Real-time ground track for satellite NOAA 16 DEB.

In-orbit conjunctions

A list of the most updated potential collisions computed for object NOAA 16 DEB.

Target Orbit TCA Probability of collision Miss distance Type
CZ-6A DEB LEO 2025-02-10 13:11:13 0.0002452439 755.0 (m) DEBRIS

Associated space launch

The NOAA K, L and M POES satellites begin the fifth generation of improved environmental monitoring in support of NOAA missions. The instrument payload has significant improvements and additions/deletions. The instrument changes have effected the spacecraft subsystems and data formats.

NOAA 16 DEB was lifted into orbit during the mission ‘Titan II SLV | NOAA 16’, on board a Titan II SLV space rocket.

The launch took place on Sept. 21, 2000, 10:22 a.m. from Space Launch Complex 4W.

For more information about the launch, click the button.

Launch to space Titan II SLV | NOAA 16
Titan II SLV | NOAA 16

Agency: N/A

Status: Launch Successful

Launch date: Sept. 21, 2000, 10:22 a.m. UTC

Rocket: Titan II SLV

Launch pad: Space Launch Complex 4W

Location: Vandenberg SFB, CA, USA

...

Latest news about this satellite

There are no fresh news available about this satellite. Check back as we update our databases every day.


Newsletter sign-up

Weekly statistics, charts and insights to help you stay on top of the space industry.